Погода в Приаргунске

Погода в Приаргунске : погода сейчас, прогноз погоды и архив. Всё, что Вы хотите узнать о погоде в Приаргунске!

Хотите узнать прогноз погоды в Приаргунске? Тогда Вам сюда: Погода в Приаргунске

Поиск расширенной информации на нашем сайте:

Полезная информация: матрасы Поролоновые Спб

Другие новости

Новости СМИ2

Главная страница сайта

Новости сайта

02.10.2013

Напоминаем, что на нашем новом сайте вы можете получить высокодетализированные прогнозы погоды по пунктам России, СНГ и мира (включающие важные для авиации метеовеличины, такие как направление и скорость ветра, видимость, явления погоды, количество и форма облачности, нижняя и верхняя граница облачности), а также ознакомиться с разнообразными материалами по авиационной метеорологии и подборкой полезных ссылок на эту тему.

Сайт Метеоцентр.Азия посвящён разработке технологий оптимизации авиаметеорологического обслуживания, включая проектирование и перспективное создание нескольких автоматизированных авиаметеорологических систем:
- система выпуска высокодетальных прогностических карт явлений погоды для нижнего воздушного пространства по России и ближнему зарубежью;
- система верификации прогнозов TAF (выпускаемых синоптиками официальных АМСГ РФ и ближнего зарубежья) и AUTOTAF (выпускаемых сайтом Метеоцентр.Азия) - выявление ошибок, онлайн-сопоставление с фактической погодой METAR, автоматическое внесение коррективов в прогнозы при резком отклонении фактической погоды от прогноза, подсчёт оправдываемости прогнозов по элементам и в целом;
- система обработки, анализа и отображения авиаметеорологической информации для применения провайдерами метеорологической информации.

Рекомендуем: Промоутеры

Погода в Приаргунске - сегодня

Время (UTC), дата Ветер
(°,м/с) 
Видим.   Явления Облачность Т
(°С)
Тd
(°С)
f(%) Тe
(°С)
Pmin
(гПа)
dP
(гПа)
Po
(мм)
O2
(г/м3)
Тmin Tmax R s Состояние
почвы
18 16.01.17 тихо ()   20000 м    ясно 
-33.1 -37.1 67 -33  1039.8  -0.4  725  334           
21 16.01.17 тихо ()   20000 м    ясно 
-34.2 -38.3 66 -34  1039.3  -0.7  724  335           
00 17.01.17 350 (С) 20000 м    ясно 
-33.2 -37.3 67 -34  1038.8  -0.2  724  334  -35.4      равномерный
сухой снег
100% 
03 17.01.17 300 (СЗ) 20000 м    8/8 2000 м средняя, верхняя 
[Ac lent|Ci fib]
-28.3 -32 70 -32  1037.6  0.4  724  327           
06 17.01.17 210 (ЮЗ) 20000 м    8/8 2000 м средняя, верхняя 
[Ac lent|Ci fib]
-22.4 -27.6 63 -23  1034.4  -1.4  723  319           
09 17.01.17 тихо ()   20000 м    4/4 2000 м средняя 
[Ac lent]
-25.7 -30.1 67 -26  1036  0.6  723  324           
12 17.01.17 050 (СВ) 20000 м    6/6 2000 м средняя 
[Ac lent]
-29.4 -32.4 75 -30  1038.1  0.9  724  329    -21.7       
15 17.01.17 070 (В) 20000 м  слаб. снег  10/10 2000 м 
[Ns]
-28.4 -31.9 72 -29  1038.9  0.9  725  328           
18 17.01.17 070 (В) 20000 м  слаб. снег  10/10 2000 м 
[Ns]
-28.6 -32.1 72 -29  1039.4  0.4  725  328           
21 17.01.17 тихо ()   20000 м  слаб. снег  10/10 2000 м 
[Ns]
-30.5 -34.1 71 -31  1040.1  0.1  725  331           
00 18.01.17 120 (ЮВ) 20000 м  в посл. час снег  10/6 2000 м средняя, верхняя 
[As op|Cs]
-31.1 -35 69 -35  1041.1  0.8  726  332  -31.1    0.4  равномерный
сухой снег
100% 
03 18.01.17 170 (Ю) 20000 м    8/0 верхняя 
[Ci fib]
-26.5 -30.7 68 -30  1040.4  0.6  726  326  -31.5         
06 18.01.17 140 (ЮВ) 20000 м    8/4 2000 м средняя, верхняя 
[Ac lent|Ci fib]
-24.7 -30 61 -28  1038.6  -1.2  725  323           
09 18.01.17 100 (В) 20000 м    8/8 2000 м средняя 
[Ac lent]
-27.7 -31.6 69 -31  1039.5  0.1  725  327           
12 18.01.17 100 (В) 10 км  слаб. снег  10/10 2000 м 
[Ns]
-29.3 -33 70 -30  1040.3  0.3  726  329    -24.5  0.0     
15 18.01.17 130 (ЮВ) 20000 м  {снег}  8/8 2000 м средняя 
[Ac trans]
-30 -33.8 69 -31  1040.5  0.1  726  330           
18 18.01.17 тихо ()   20000 м  {снег}  ясно 
-31.6 -35.2 70 -32  1040.3  -0.5  725  332           
21 18.01.17 200 (Ю) 20000 м    ясно 
-35.5 -39.7 65 -40  1041.1  -0.4  725  338           
00 19.01.17 200 (Ю) 20000 м    3/3 2000 м средняя 
[Ac lent]
-38 -42.5 63 -39  1042.1  -0.1  725  341  -38    0.0  равномерный
сухой снег
100% 
03 19.01.17 тихо ()   20000 м    10/8 2000 м средняя, верхняя 
[As trans|Cs]
-30.4 -35.1 63 -30  1039.8  0.2  725  331  -38.1         
06 19.01.17 тихо ()   20000 м    4/4 2000 м средняя 
[Ac trans]
-26.1 -31.8 59 -26  1036.6  -1.8  724  324           
09 19.01.17 110 (В) 20000 м    5/3 2000 м средняя, верхняя 
[Ac lent|Ci]
-29.9 -34.4 65 -34  1038.2  0.4  724  329           
12 19.01.17 110 (В) 20000 м    3/3 2000 м средняя 
[Ac trans]
-33.8 -37.7 68 -35  1039.2  -0.2  724  335    -25.1       
15 19.01.17 010 (С) 20000 м    ясно 
-34.9 -39.1 66 -36  1039.1  -0.4  724  336           
18 19.01.17 360 (С) 20000 м    ясно 
-36.6 -40.9 64 -38  1038.8  -0.8  723  338           
Время (UTC), дата Ветер
(°,м/с) 
Видим.   Явления Облачность Т
(°С)
Тd
(°С)
f(%) Тe
(°С)
Pmin
(гПа)
dP
(гПа)
Po
(мм)
O2
(г/м3)
Тmin Tmax R s Состояние
почвы

Для получения пояснительной информации подведите курсор к названию столбца.

ПОГОДА в Приаргунске - архив

Всё, что Вы хотите узнать о погоде в Приаргунске - удобно и подробно!

Выберите нужную дату (начиная с 1 января 2015* года) и нажмите кнопку "Найти".
Будут отображены архивные сводки погоды по пункту Приаргунск, начиная с указанной даты.


Отображать данные в формате CSV (для использования в таблицах Excel)


Внимание! Наш архив погоды предназначен исключительно для личного некоммерческого использования в познавательных целях. Если Вам необходимы официальные справки о состоянии погоды (для производственных, юридических, коммерческих и т.п. целей), обращайтесь в органы Росгидромета.

*Примечание: данная дата относится к архиву по метеостанциям СССР (Россия, СНГ, Балтия).
Архив по метеостанциям Зарубежной Европы и Азии (кроме Китая) хранится 10 дней, по другим регионам земного шара (Китай, Африка, Америка, Австралия, Океания) - 1 день.

Приаргунск - район местоположения метеостанции


Название, широта, долгота, высота метеостанции:
Приаргунск 50.4°ш. 119.1°д. 521 м над ур. моря [Российская Федерация]

Дополнительная информация

В oтличие oт бoльшинства пoгoдных сайтoв мы публикуем пoдрoбную метеoинфoрмацию в детальнoм прoфессиoнальнoм фoрмате.

Характеристики температуры и влажнoсти вoздуха измеряются на высoте 2 м в тени вдали oт зданий и деревьев.
Скoрoсть ветра измеряется на высoте 10 м (на урoвне рoста челoвека скoрoсть ветра ниже в 1.5-2 раза). Если метеoстанция нахoдится в гoрoде или в лесу, тo скoрoсть ветра занижена на 2-4 м/с пo сравнению с oткрытым местoм. Скoрoсть ветра над акватoриями крупных рек и oзёр, а также на вершинах хoлмoв на 2-5 м/с выше, чем в oбычных услoвиях.
Атмoсфернoе давление в разных тoчках местнoсти мoжет значительнo oтличаться oт давления на метеoстанции, в зависимoсти oт услoвий рельефа (при пoдъёме на 10 м давление пoнижается примернo на 1 мм рт.ст.).